Location: *
(33.8649°S, 62.1526°E)
Time: 04:12:46
(UTC+00:00)

Cosmos-2242 - Visible Passes

Search period start: 13 May 2021 00:00
Search period end: 23 May 2021 00:00
Orbit: 589 x 618 km, 82.5° (Epoch: 12 May)

Date Brightness Start Highest point End Pass type
(mag) Time Alt. Az. Time Alt. Az. Time Alt. Az.
13 May 3.1 02:04:36 10° NNW 02:08:56 61° W 02:13:22 10° S visible
13 May 5.6 13:53:25 10° SW 13:56:59 25° W 14:00:30 10° NW visible
14 May 6.2 00:41:47 10° ENE 00:44:22 15° E 00:46:58 10° SE visible
14 May 6.2 14:06:58 10° SW 14:09:20 14° W 14:11:40 10° WNW visible
15 May 5.3 00:53:03 10° NE 00:56:43 26° E 01:00:25 10° SSE visible
16 May 4.2 01:04:56 10° NNE 01:09:07 46° E 01:13:23 10° SSE visible
17 May 3.1 01:17:11 10° N 01:21:35 83° E 01:26:05 10° S visible
18 May 3.1 01:29:48 10° NNW 01:34:08 55° W 01:38:31 10° S visible
18 May 5.8 13:18:44 10° SW 13:22:08 22° W 13:25:29 10° NW visible
19 May 5.9 00:06:39 10° NE 00:09:31 17° E 00:12:23 10° SE visible
19 May 3.8 01:42:47 10° NW 01:46:44 31° WSW 01:50:44 10° SSW visible
19 May 6.3 13:32:29 10° WSW 13:34:27 13° W 13:36:25 10° WNW visible
20 May 5.0 00:18:04 10° NNE 00:21:52 29° E 00:25:42 10° SSE visible
20 May 4.4 01:56:15 10° WNW 01:59:23 19° WSW 02:02:34 10° SSW visible
21 May 3.9 00:30:02 10° NNE 00:34:17 51° E 00:38:37 10° SSE visible
21 May 4.9 02:10:53 10° W 02:12:07 11° WSW 02:13:22 10° SW visible
22 May 2.9 00:42:21 10° N 00:46:46 89° WSW 00:51:15 10° S visible
22 May6.623:26:04SE23:26:04SE23:18:19NEvisible
